Regional Weather Roundup
Issued by NWS Northern Indiana

Home | Current Version | Previous Version | Graphics & Text | Print | Product List | Glossary On
Versions: 1 2 3 4 5 6 7 8 9 10 11 12 13 14 15 16 17 18 19 20 21 22 23 24 25 26 27 28 29 30 31 32 33 34 35 36 37 38 39 40 41 42 43 44 45 46 47 48 49 50
000
ASUS43 KIWX 290110
RWRIWX

KIWX WEATHER ROUNDUP
NATIONAL WEATHER SERVICE NORTHERN INDIANA
900 PM EDT FRI AUG 28 2015

NOTE: "FAIR" INDICATES FEW OR NO CLOUDS BELOW 12,000 FEET WITH NO
SIGNIFICANT WEATHER AND/OR OBSTRUCTIONS TO VISIBILITY.

* THESE STATIONS ARE NOT UNDER NWS QUALITY CONTROL. THEY ALSO MAY NOT
  REPORT WEATHER SUCH AS PRECIPITATION OR FOG.

INZ001>027-290200-
NORTHERN INDIANA

CITY           SKY/WX    TMP DP  RH WIND       PRES   REMARKS
GARY*          CLOUDY    68  64  88 CALM      30.08R
VALPARAISO     CLOUDY    70  62  76 E3        30.08S
MICHIGAN CITY* CLOUDY    68  64  88 CALM      30.09R
LAPORTE*       CLOUDY    70  68  92 CALM      30.10R
KNOX*          CLOUDY    68  61  77 SE3       30.08S
SOUTH BEND     CLOUDY    72  61  68 CALM      30.10R
ELKHART*       CLOUDY    72  63  73 CALM      30.10S
GOSHEN         CLOUDY    70  62  76 SE6       30.09F
MONTICELLO*    CLOUDY    71  60  69 E3        30.07S
LOGANSPORT*    CLOUDY    66  55  68 CALM      30.10R
ROCHESTER*     CLOUDY    72  63  73 CALM      30.10S
WARSAW*        CLOUDY    68  61  77 SE3       30.09F
ANGOLA*        CLEAR     64  63  94 CALM      30.12S
FORT WAYNE     MOCLDY    68  60  75 SE5       30.12S
HUNTINGTON*    PTCLDY    69  55  62 CALM      30.11S
PERU/GRISSOM   CLOUDY    69  60  74 SE5       30.09R
MARION*        PTCLDY    66  52  60 CALM      30.11S

$$
INZ028>050-290200-
CENTRAL INDIANA

CITY           SKY/WX    TMP DP  RH WIND       PRES   REMARKS
LAFAYETTE      CLOUDY    70  58  65 S3        30.07S
KOKOMO*        MOCLDY    64  52  63 SE6       30.10R
MUNCIE*        PTCLDY    69  57  65 S5        30.11F
INDIANAPOLIS   MOCLDY    71  55  56 E7        30.07S

$$
MIZ043>046-050>051-056>058-064>065-071>073-077>080-290200-
SOUTHWEST LOWER MICHIGAN

CITY           SKY/WX    TMP DP  RH WIND       PRES   REMARKS
BATTLE CREEK   MOCLDY    72  61  68 NE3       30.12S
BENTON HARBOR  CLOUDY    68  63  84 CALM      30.09R
COLDWATER*     MOCLDY    65  64  96 CALM      30.12S
HILLSDALE*     MOCLDY    64  64  99 CALM      30.14R
HOLLAND        CLOUDY    68  62  81 CALM      30.10F
GRAND RAPIDS   CLOUDY    69  62  78 SE3       30.11S
KALAMAZOO      CLOUDY    71  61  70 CALM      30.10F
STURGIS*       CLOUDY    66  63  88 SE5       30.10F
THREE RIVERS*  FAIR      69  64  82 SE5       30.10F

$$
OHZ001>008-015>018-024>025-290200-
NORTHWEST OHIO

CITY           SKY/WX    TMP DP  RH WIND       PRES   REMARKS
WAUSEON*       FAIR      66  66 100 CALM      30.13R
DEFIANCE       MOCLDY    68  61  78 CALM      30.12S
FINDLAY        CLOUDY    70  59  68 SE3       30.12R
TOLEDO EXPRESS MOCLDY    64  61  90 CALM      30.12S
TOLEDO METCALF MOCLDY    67  60  78 E6        30.14R
LIMA           CLOUDY    65  61  87 CALM      30.13R

$$
AND FOR LAKE MICHIGAN COASTAL AND OPEN LAKE BUOY OBSERVATIONS

STATION/POSITION TEMP    WIND        PRES    VSBY  WAVE
                 AIR SEA DIR/SP/G                  HT/PER
                 (F)     (DEG/KT/KT) (MB)    (MI)  (FT/S)
MICHIGAN CITY     72      70/  4/  5   N/A
BURNS HARBOR      71      90/  2/  7 1018.6S
SAINT JOSEPH      69        CALM     1019.6R
SOUTH LAKE BUOY   68 69  100/  2/  2 1018.9R         1
4 MI NW BRIDGMAN  71 71  110/  6/  6   N/A           0
MICHIGAN CITY     71 71  100/  4/  6   N/A           0

$$
&&



USA.gov is the U.S. government's official web portal to all federal, state and local government web resources and services.